Temperature
17 18 18 19 19 19 20 23 25 25 25 25 24 25 25 26 24 21 21 20 20 22 22 21 20 18 17 16 16 16 16 16 15 15 15 15 15 15 15 15 15 15 15 15 15 15 15 15 15
17 17 18 19 19 19 21 23 25 25 24 23 24 24 25 25 22 21 20 20 19 21 22 21 20 18 17 16 16 16 15 15 15 15 15 16 16 15 15 15 15 15 15 15 15 15 15 15 15
17 17 18 19 19 19 22 24 24 24 24 24 24 25 25 24 22 20 20 19 18 19 20 21 19 18 17 16 16 15 15 15 15 15 16 16 16 15 15 15 15 14 14 15 15 15 15 15 15
16 17 18 19 19 21 22 24 24 24 24 24 24 25 23 21 21 20 20 19 18 18 19 20 19 18 16 16 16 15 15 15 16 16 16 16 16 15 15 15 15 15 15 15 15 15 15 15 15
15 17 17 18 19 22 23 24 24 24 24 24 24 25 21 20 20 20 19 19 18 17 19 19 18 17 16 16 16 15 15 15 16 16 16 17 16 16 16 15 15 15 15 15 15 15 15 15 15
15 16 16 17 19 21 23 24 23 23 24 24 24 24 20 20 19 19 19 19 18 18 18 19 18 17 16 16 16 15 15 15 16 16 17 17 17 17 16 16 15 15 15 15 15 15 15 15 15
14 15 16 17 19 21 23 24 23 23 23 24 24 24 20 19 19 19 19 19 18 18 18 18 18 17 17 16 16 16 15 15 15 16 16 17 17 17 16 16 16 16 16 15 15 15 15 15 15
14 14 15 17 19 20 23 24 23 23 23 23 23 23 20 19 19 19 19 19 18 17 17 18 18 17 17 17 17 16 16 15 15 16 16 17 17 17 17 16 16 16 16 16 15 15 15 15 15
14 13 14 16 18 20 23 23 23 22 22 23 22 20 19 19 19 19 19 18 18 17 17 17 17 17 17 17 17 17 16 16 16 16 16 17 17 17 17 17 16 16 16 16 16 16 15 15 15
14 13 14 17 19 20 22 22 22 22 21 22 22 20 19 19 19 18 18 18 17 17 16 16 16 16 16 16 17 17 17 17 16 17 17 17 17 16 16 16 16 16 16 16 16 16 15 15 15
15 14 16 18 19 20 21 21 22 21 20 22 22 21 19 18 18 17 17 17 17 17 16 16 16 16 15 15 16 17 17 17 16 16 17 16 15 14 15 16 16 16 16 16 16 16 15 15 15
15 16 17 19 18 18 19 21 21 21 21 21 21 20 19 18 18 17 17 17 16 16 16 16 16 16 16 15 16 15 16 16 16 16 16 16 15 14 14 15 16 16 16 16 16 15 15 15 14
15 16 18 18 17 17 18 20 20 21 20 20 19 19 19 19 18 18 17 17 17 16 16 16 16 16 16 15 15 15 15 15 15 16 15 15 15 14 14 14 15 15 15 16 15 15 14 14 14
15 16 18 18 17 17 18 19 20 20 20 19 19 19 19 19 19 18 18 18 17 17 16 16 16 16 16 16 15 15 15 15 15 15 15 15 15 15 14 14 14 14 14 14 14 14 14 13 13
16 16 16 16 17 17 17 17 18 19 19 19 19 19 19 19 19 18 18 18 18 17 17 17 17 16 16 16 16 16 15 15 15 15 15 15 15 15 14 14 14 14 14 13 13 13 13 13 13
15 14 14 15 16 17 16 15 17 19 19 19 19 19 19 19 19 18 18 18 18 18 17 17 17 16 16 16 16 16 16 15 15 15 15 15 15 15 14 14 14 14 13 13 13 13 13 13 13
13 12 13 15 16 16 15 15 18 19 19 19 19 19 19 19 19 19 18 18 18 18 17 17 17 17 16 16 16 16 15 15 16 15 15 15 15 15 14 14 14 14 13 13 13 13 13 13 13
12 13 13 14 16 16 15 15 17 18 18 18 18 19 19 19 19 18 18 18 18 17 17 17 17 17 16 16 16 15 15 15 16 16 16 16 15 15 14 14 14 14 13 13 13 13 13 13 13
14 14 14 15 16 15 15 15 16 18 17 17 18 18 19 19 18 17 17 17 16 16 16 17 17 17 16 16 16 16 16 16 16 16 16 16 16 15 15 14 14 14 13 13 13 13 12 12 12
15 14 14 15 15 15 14 15 16 16 17 17 17 17 18 17 17 16 16 15 15 15 15 16 16 16 16 16 16 16 16 16 16 16 16 16 16 16 15 14 14 14 13 13 13 12 12 12 12
14 14 15 14 13 14 14 14 15 16 16 16 16 16 16 15 15 15 14 14 14 14 14 15 15 15 16 16 16 16 15 15 15 15 15 15 15 15 15 14 13 13 13 13 13 12 12 12 12
13 15 15 14 12 11 12 12 14 14 14 14 14 15 14 14 14 13 13 12 12 12 13 14 14 14 15 15 15 15 15 15 15 14 14 14 14 14 14 13 13 13 12 12 12 12 12 11 11
14 15 14 13 12 12 12 12 14 13 13 13 13 14 13 13 13 12 12 11 11 12 12 13 13 13 13 14 14 14 14 14 14 14 14 14 14 14 13 13 13 12 12 12 12 12 12 11 11
13 13 13 13 12 10 12 12 13 13 13 13 13 13 13 12 12 11 11 11 11 11 11 12 12 12 12 12 12 12 12 13 13 13 13 13 13 13 13 13 13 12 12 12 11 11 11 11 11
12 10 9 9 9 10 13 13 14 14 14 13 12 13 12 12 12 11 11 10 10 10 11 11 11 11 11 11 11 11 11 11 11 12 12 12 12 12 12 12 12 12 12 12 11 11 11 11 11
11 11 10 10 10 11 12 12 13 13 14 14 13 12 12 12 11 11 10 10 10 10 10 10 10 10 10 10 10 10 10 10 10 10 10 11 11 11 12 12 12 12 11 11 11 11 11 11 10
10 10 11 10 11 11 10 12 12 13 12 12 12 12 12 12 11 10 10 9 9 9 9 9 9 9 9 9 9 9 9 9 9 9 10 10 10 10 10 11 11 11 11 11 11 10 10 10 10
9 10 9 9 10 11 12 12 11 10 10 11 11 12 12 11 11 10 9 9 8 8 8 7 7 7 8 8 8 8 8 8 8 8 8 9 9 9 10 10 10 10 10 10 10 10 10 9 9
8 9 9 10 10 10 11 12 13 11 11 11 12 12 12 11 10 9 8 8 7 6 6 6 6 7 7 7 7 7 7 7 8 8 8 8 8 8 9 9 9 9 9 9 9 9 8 8 8
9 10 9 9 9 10 9 10 13 12 12 12 12 12 11 10 9 8 7 6 6 5 5 5 5 6 6 6 6 6 7 7 7 7 7 7 7 8 8 8 8 8 8 8 8 8 8 7 7
Wind_Speed
14 15 9 4 4 5 10 11 3 6 4 7 8 6 9 7 5 6 6 8 17 17 19 19 18 17 16 16 17 17 16 16 15 13 12 11 9 9 10 11 13 15 17 17 17 16 15 15 14
11 11 6 4 5 7 9 10 4 4 6 7 2 4 6 1 9 8 5 12 16 17 18 18 18 17 17 18 18 17 16 15 14 13 11 10 10 11 13 15 16 17 17 17 16 15 15 14 13
7 10 5 4 7 10 9 5 7 9 7 2 5 7 4 5 8 6 9 12 14 14 17 19 18 18 18 19 18 17 16 15 13 12 11 10 11 13 15 16 17 17 16 16 15 14 13 13 12
4 3 5 7 11 13 12 3 7 8 6 4 4 5 6 6 5 8 10 12 14 13 19 19 18 18 19 18 17 16 15 14 13 12 11 11 12 14 15 16 16 15 15 14 13 13 12 11 10
2 3 7 10 13 12 9 4 6 3 5 5 5 3 8 6 10 10 9 11 13 15 18 18 18 18 18 18 17 16 15 14 13 13 12 11 12 13 13 14 14 14 13 13 12 11 10 9 8
2 3 8 13 14 14 10 5 7 5 3 3 4 1 7 9 10 9 8 9 13 16 16 17 18 18 17 17 16 16 16 15 14 13 12 12 12 12 11 11 12 12 12 11 10 10 8 7 6
5 5 12 15 14 13 12 6 9 7 6 4 2 1 8 10 8 9 8 9 14 15 15 14 15 15 15 15 15 15 16 15 14 13 12 12 12 11 10 10 10 11 11 10 10 9 7 7 6
5 4 12 16 15 12 10 7 7 6 6 1 2 3 8 8 5 7 7 8 11 13 12 11 14 14 13 13 13 15 16 16 15 14 14 13 12 11 10 10 10 10 10 10 9 8 7 7 6
5 7 13 16 14 11 7 5 7 2 5 2 3 8 9 10 5 6 6 6 7 9 11 9 11 14 15 15 14 14 16 16 16 15 16 15 13 12 11 11 11 9 9 9 9 8 8 7 6
7 11 18 16 15 11 8 5 6 6 6 6 4 9 11 9 7 7 6 4 4 5 7 8 7 9 13 13 14 13 13 14 14 14 15 14 14 15 14 15 13 10 9 10 10 9 9 8 8
9 14 17 19 12 7 7 6 5 6 8 9 9 11 10 9 8 8 8 7 5 3 2 4 5 6 7 8 12 11 12 14 15 16 18 15 14 12 13 13 12 11 10 10 10 10 10 11 10
10 14 16 14 2 3 5 3 5 7 4 5 9 8 8 8 7 7 8 10 10 8 6 3 2 3 4 7 7 9 9 11 12 14 18 15 9 8 11 11 13 13 12 12 12 11 12 11 8
14 11 13 8 6 3 6 7 6 7 3 9 8 4 3 6 8 7 7 6 9 10 10 8 6 5 3 3 4 5 6 9 13 14 16 15 8 5 7 9 13 14 14 13 11 11 10 9 9
11 11 8 5 6 3 6 7 6 5 6 7 4 3 4 4 4 7 8 7 7 9 11 11 10 8 6 5 3 3 5 8 11 12 13 15 12 8 6 6 8 11 13 13 12 10 7 6 6
7 8 5 5 6 4 2 8 9 7 5 7 8 8 6 4 3 3 4 5 6 7 10 12 12 11 10 9 7 6 6 6 6 9 14 16 14 11 8 4 4 9 13 13 11 10 8 5 5
6 7 7 8 9 7 6 10 10 10 9 9 8 9 8 8 7 6 6 4 3 3 5 9 10 11 11 10 8 7 7 7 6 8 11 15 16 14 10 5 5 10 11 9 5 5 5 5 6
6 9 12 10 13 9 9 8 9 10 10 8 8 8 8 7 8 7 5 3 3 3 3 4 6 8 9 9 7 7 8 7 7 8 9 12 15 16 11 6 7 11 7 5 6 5 5 5 6
15 14 15 12 13 12 12 9 8 3 4 6 8 9 8 6 5 2 1 2 2 2 3 3 3 5 6 6 6 6 6 6 7 7 9 11 12 15 13 8 9 10 6 7 6 7 6 5 6
14 14 14 13 9 12 11 10 10 7 8 8 8 7 5 4 2 4 4 5 4 3 3 4 4 3 3 3 4 5 6 7 7 7 11 12 13 13 11 6 8 8 9 9 8 7 7 6 5
7 13 13 7 7 7 7 10 10 9 8 7 7 6 4 1 3 4 4 4 4 5 5 5 5 5 5 3 2 3 4 5 7 7 10 15 15 14 10 8 8 9 8 10 11 8 7 6 7
9 8 10 9 5 2 4 7 12 8 6 4 3 2 2 2 3 5 5 6 6 6 7 6 6 6 6 6 4 3 2 3 4 6 8 10 14 14 12 9 8 8 9 9 11 11 11 9 8
8 5 4 10 8 5 8 5 11 12 9 7 6 5 4 4 5 6 6 6 5 5 4 6 6 6 6 5 4 5 4 5 6 5 6 8 11 13 15 12 10 10 8 9 10 11 9 8 7
4 3 4 8 6 4 7 5 4 10 9 9 8 7 7 6 6 6 5 3 4 4 3 4 6 5 5 4 5 5 6 6 5 6 7 7 7 9 12 13 12 12 10 10 10 10 11 10 9
5 7 6 2 3 5 9 8 5 8 11 11 9 9 8 7 5 5 4 3 3 3 3 4 5 5 5 5 5 5 6 7 7 8 7 6 5 6 8 10 11 12 12 12 12 11 11 11 10
7 8 5 4 5 6 8 7 5 7 12 12 11 9 8 6 4 4 4 4 4 4 5 6 6 6 6 6 6 6 6 6 7 7 7 7 6 5 6 7 9 10 12 12 12 12 12 12 11
7 6 3 5 7 4 4 6 1 8 11 11 10 8 6 5 4 4 4 3 4 6 6 7 7 7 7 7 7 7 7 5 5 6 6 6 5 5 6 5 7 8 10 10 10 10 11 9 11
5 4 1 3 3 3 6 5 5 7 8 9 8 7 7 5 4 4 4 5 5 6 6 7 7 7 7 8 8 7 7 7 7 7 6 6 5 5 6 6 5 5 6 8 8 8 8 7 8
1 1 2 2 2 3 7 8 9 13 11 9 9 8 7 5 4 5 5 5 5 5 6 6 7 7 7 8 7 7 7 7 7 7 7 7 7 6 7 6 5 3 2 2 5 5 5 5 5
4 3 3 3 3 2 2 1 1 15 12 11 9 7 6 5 4 5 4 4 4 5 6 7 7 7 8 8 7 7 7 8 8 7 8 8 8 8 7 7 5 4 3 2 0 1 2 3 2
4 6 6 4 4 3 2 1 3 11 10 8 7 6 5 6 5 4 4 4 4 5 6 6 7 7 7 7 7 8 8 9 9 9 9 9 9 9 9 9 8 7 6 5 4 3 3 3 3
Wind_Direction
297 281 268 266 253 234 243 249 228 61 13 37 23 345 333 340 31 93 206 125 118 126 135 138 139 141 140 135 129 125 121 117 113 110 105 99 91 87 88 98 102 103 102 100 95 92 90 88 85
295 286 277 253 242 237 236 239 156 132 70 50 16 291 292 21 97 111 129 112 122 126 138 138 137 139 139 134 131 127 123 119 116 114 110 106 99 91 92 99 99 100 99 98 97 95 92 90 87
281 279 262 237 234 243 250 211 137 92 82 188 209 210 230 28 76 103 115 123 124 129 135 132 136 136 135 134 133 130 126 123 120 117 115 113 106 96 95 97 99 100 100 100 99 97 94 92 89
266 254 249 246 239 236 259 46 82 115 153 207 249 185 87 41 50 101 122 132 126 124 121 131 131 133 134 135 134 132 130 128 125 122 121 119 111 101 98 100 102 103 104 103 103 101 97 94 92
262 259 237 242 246 250 249 120 94 162 165 170 257 131 84 74 84 111 141 140 132 122 124 132 131 134 136 138 138 138 135 133 131 129 127 125 117 108 106 107 108 109 109 108 106 104 99 96 95
205 240 235 234 237 244 254 149 129 246 204 159 253 175 97 110 112 134 142 142 123 118 125 131 132 134 137 140 143 143 140 139 137 135 133 129 125 122 120 118 117 117 116 114 111 107 101 97 96
185 224 238 238 240 234 235 181 159 217 238 197 293 39 112 101 115 135 146 134 116 121 127 134 135 134 138 142 147 149 147 145 144 141 136 132 131 133 134 132 131 129 126 123 119 114 109 105 103
182 213 243 244 246 244 232 187 165 211 245 73 5 354 109 113 126 133 136 117 117 125 133 144 150 150 149 150 152 154 153 153 151 147 142 139 140 144 147 147 144 141 138 135 132 127 123 119 118
182 210 229 235 246 253 251 192 162 159 300 293 101 73 94 105 96 89 83 85 112 130 139 152 159 159 162 164 162 157 160 161 157 154 153 154 161 164 170 165 153 152 151 151 147 144 142 140 141
186 212 222 232 247 258 263 227 170 158 234 246 161 111 115 123 125 119 119 120 121 136 142 153 158 157 166 163 156 169 172 170 172 169 168 182 192 182 176 163 161 166 167 165 164 163 166 169 171
194 219 220 230 248 296 258 218 198 192 211 221 192 150 134 136 150 155 163 167 168 176 162 147 154 157 161 141 159 177 178 177 194 185 179 200 210 176 148 154 166 175 177 178 176 179 198 209 186
209 223 229 235 213 304 290 236 218 225 241 67 67 87 123 150 168 173 183 173 172 179 188 209 180 160 168 155 174 177 177 177 192 198 186 196 205 176 162 167 175 185 191 193 180 199 214 213 177
222 229 223 220 113 249 267 262 240 223 138 82 75 58 149 173 173 177 200 188 166 171 175 191 202 195 194 180 191 192 187 179 187 196 194 194 197 180 181 183 179 188 191 192 185 205 201 191 191
211 233 223 167 139 231 244 252 235 229 143 126 136 211 227 204 182 175 188 195 184 173 175 182 195 199 193 200 210 216 211 191 190 188 194 202 202 191 191 192 187 190 193 188 187 202 195 183 183
194 216 199 188 173 188 252 257 238 228 180 184 195 213 220 223 204 217 211 200 201 185 178 180 190 196 194 198 203 217 226 215 203 191 195 205 211 202 198 195 194 194 196 191 187 200 194 177 173
191 191 192 197 192 185 195 237 232 224 217 219 222 223 210 208 207 216 229 214 225 221 188 183 188 192 196 197 196 205 216 222 215 211 201 205 212 210 203 195 205 200 197 193 185 192 184 175 170
177 193 198 192 192 183 196 239 248 202 206 220 236 244 236 209 200 214 221 210 209 240 244 206 191 193 199 200 194 195 202 212 217 220 220 215 214 214 207 201 203 202 198 192 192 189 178 178 181
184 193 198 200 184 193 203 227 257 169 174 238 244 241 232 213 202 183 44 12 4 339 322 301 233 206 211 208 200 196 200 203 208 216 226 231 226 219 212 206 205 200 195 200 196 190 188 183 181
184 197 202 204 175 190 211 225 240 212 185 228 253 260 247 216 137 77 43 22 8 351 332 318 309 287 253 224 208 203 207 208 208 212 220 229 236 232 220 211 206 203 203 201 196 186 194 195 163
235 200 206 167 133 175 216 231 233 229 207 214 243 264 273 27 74 69 59 48 22 13 10 348 335 326 318 300 263 227 219 216 215 213 215 220 226 233 234 224 218 210 207 201 199 196 189 190 171
234 219 195 144 125 209 260 250 228 218 212 214 238 282 342 45 73 77 72 61 45 34 18 351 341 333 327 329 329 317 295 264 241 229 218 215 218 222 228 233 230 223 215 213 208 203 196 198 195
208 227 179 134 137 200 200 247 214 192 190 196 199 191 156 107 84 73 57 49 46 44 18 344 333 325 321 324 313 296 279 266 255 249 236 223 215 214 217 223 226 229 226 222 217 211 207 193 199
181 147 118 134 182 227 189 230 225 150 178 186 179 154 129 116 108 102 90 71 59 51 14 337 324 319 320 317 305 290 280 277 283 286 272 253 233 219 215 214 217 223 226 228 226 219 213 207 200
116 99 88 103 218 241 205 208 225 183 184 168 155 141 136 131 133 127 116 98 77 51 12 339 328 329 332 323 310 291 279 282 291 293 290 283 269 244 225 216 217 219 221 224 226 225 220 215 210
154 136 139 174 202 233 196 200 255 168 158 154 149 143 136 140 138 105 77 49 33 25 5 346 349 347 345 340 329 318 305 292 284 284 283 285 282 273 248 226 222 222 222 222 222 223 224 219 215
191 192 175 185 194 184 162 211 191 106 118 124 127 129 144 159 129 108 88 54 25 15 9 360 353 346 349 345 335 328 324 312 296 293 295 294 291 288 289 264 239 230 223 221 221 224 227 224 222
177 210 356 327 283 167 198 180 103 113 123 132 142 161 174 157 135 110 78 55 32 15 10 356 349 351 352 347 339 337 338 332 324 319 314 306 304 310 314 306 282 254 231 222 216 222 223 221 224
357 155 153 167 217 237 192 185 186 176 174 171 173 179 165 149 127 95 69 54 34 21 8 360 3 1 354 352 348 346 340 336 334 335 334 334 336 341 341 338 335 323 289 240 219 220 217 212 218
160 172 213 222 267 265 222 172 116 167 168 171 172 154 137 125 100 80 66 52 40 32 21 13 9 6 1 354 347 348 353 356 0 5 2 360 1 2 360 357 2 9 10 17 39 203 174 190 181
224 197 190 199 231 224 274 352 65 133 138 142 141 135 139 124 107 95 85 64 50 38 28 18 14 10 2 356 357 5 10 11 13 13 9 10 13 15 17 19 25 28 30 37 51 64 81 111 125
Height
1519 1521 1522 1523 1523 1522 1517 1505 1494 1497 1499 1501 1503 1504 1504 1505 1510 1522 1521 1522 1520 1521 1525 1528 1531 1533 1536 1538 1541 1543 1544 1545 1546 1547 1547 1548 1548 1549 1549 1550 1551 1553 1554 1555 1555 1556 1556 1556 1556
1519 1521 1523 1522 1522 1525 1514 1500 1496 1499 1502 1505 1508 1508 1508 1509 1512 1516 1519 1521 1521 1522 1525 1528 1531 1534 1536 1539 1541 1543 1545 1546 1547 1547 1548 1548 1549 1550 1551 1552 1553 1555 1556 1556 1557 1558 1558 1558 1558
1518 1520 1522 1518 1518 1517 1507 1493 1494 1499 1504 1508 1509 1509 1509 1511 1514 1516 1519 1521 1522 1523 1526 1529 1532 1534 1537 1539 1542 1543 1545 1546 1547 1548 1548 1549 1550 1551 1552 1554 1555 1556 1557 1558 1559 1560 1560 1560 1561
1519 1521 1520 1517 1513 1506 1499 1496 1496 1501 1506 1508 1507 1508 1510 1514 1515 1517 1519 1522 1524 1524 1526 1530 1532 1535 1538 1540 1542 1544 1545 1546 1547 1548 1549 1550 1551 1552 1554 1555 1557 1558 1559 1560 1561 1561 1562 1562 1563
1518 1520 1519 1516 1510 1500 1495 1496 1499 1502 1505 1507 1507 1506 1511 1515 1515 1517 1521 1524 1525 1525 1527 1530 1533 1535 1538 1540 1542 1544 1545 1547 1548 1549 1550 1551 1552 1553 1555 1556 1558 1559 1560 1561 1562 1563 1563 1564 1564
1519 1518 1520 1517 1508 1500 1495 1496 1501 1504 1505 1506 1507 1506 1513 1516 1517 1520 1523 1526 1527 1526 1527 1531 1533 1536 1538 1541 1543 1544 1546 1547 1548 1549 1551 1552 1553 1554 1555 1557 1558 1560 1561 1562 1563 1564 1565 1565 1566
1516 1517 1516 1512 1506 1500 1496 1496 1501 1505 1505 1506 1507 1507 1513 1516 1519 1522 1524 1527 1527 1527 1528 1531 1533 1536 1539 1541 1543 1545 1546 1547 1549 1550 1551 1552 1553 1555 1556 1558 1559 1561 1562 1563 1564 1565 1565 1566 1567
1510 1516 1515 1510 1505 1500 1494 1495 1499 1504 1506 1507 1508 1508 1513 1516 1519 1522 1525 1527 1528 1528 1529 1532 1534 1537 1539 1541 1543 1545 1546 1548 1549 1550 1551 1553 1554 1555 1557 1558 1560 1561 1563 1564 1565 1565 1566 1567 1568
1508 1516 1514 1509 1505 1499 1494 1495 1499 1503 1506 1507 1509 1512 1514 1515 1518 1521 1524 1526 1528 1530 1531 1532 1534 1537 1539 1541 1543 1544 1546 1547 1549 1550 1552 1553 1554 1556 1557 1558 1560 1561 1562 1564 1565 1565 1566 1567 1568
1504 1509 1506 1504 1501 1497 1496 1497 1499 1504 1507 1508 1510 1512 1514 1515 1518 1520 1522 1525 1527 1530 1532 1533 1536 1537 1539 1540 1542 1544 1545 1547 1548 1549 1551 1553 1554 1555 1556 1558 1559 1561 1562 1563 1564 1565 1566 1566 1567
1498 1498 1498 1499 1498 1497 1496 1497 1499 1503 1506 1507 1508 1510 1513 1515 1517 1519 1522 1524 1526 1528 1531 1534 1536 1538 1540 1540 1541 1543 1544 1545 1547 1548 1550 1552 1553 1555 1555 1557 1558 1560 1561 1562 1563 1564 1565 1565 1566
1493 1493 1495 1495 1496 1498 1497 1497 1499 1502 1505 1505 1506 1508 1512 1515 1517 1519 1521 1523 1524 1526 1529 1531 1534 1536 1538 1539 1541 1542 1543 1544 1546 1547 1549 1551 1552 1554 1554 1555 1556 1558 1559 1560 1561 1562 1563 1564 1564
1490 1490 1492 1494 1496 1498 1498 1498 1499 1501 1504 1504 1506 1509 1512 1514 1516 1518 1520 1523 1524 1525 1527 1529 1531 1534 1536 1538 1540 1542 1543 1544 1545 1546 1548 1549 1551 1552 1553 1553 1554 1555 1556 1557 1559 1560 1561 1562 1563
1488 1489 1489 1492 1496 1499 1499 1499 1500 1501 1503 1505 1508 1510 1513 1514 1516 1517 1519 1521 1523 1524 1526 1527 1529 1531 1533 1535 1537 1539 1542 1543 1544 1545 1546 1547 1549 1550 1551 1552 1552 1553 1554 1555 1556 1558 1559 1559 1560
1486 1489 1491 1492 1496 1498 1501 1502 1500 1501 1503 1505 1508 1510 1512 1513 1515 1516 1518 1520 1522 1523 1524 1525 1527 1528 1530 1532 1534 1536 1539 1541 1542 1543 1544 1545 1546 1547 1548 1549 1550 1550 1552 1553 1553 1554 1556 1556 1556
1486 1491 1496 1494 1495 1497 1505 1506 1498 1500 1502 1504 1506 1508 1509 1511 1513 1515 1516 1518 1519 1521 1523 1524 1525 1527 1528 1530 1532 1533 1535 1537 1539 1540 1541 1542 1542 1544 1545 1545 1546 1548 1548 1549 1550 1551 1552 1552 1552
1489 1494 1496 1493 1492 1495 1501 1502 1496 1495 1498 1501 1503 1505 1506 1508 1510 1512 1514 1516 1517 1519 1521 1522 1523 1525 1526 1528 1529 1530 1532 1533 1535 1536 1537 1538 1539 1540 1540 1541 1542 1543 1544 1545 1546 1546 1547 1548 1548
1487 1488 1490 1490 1488 1492 1498 1498 1495 1494 1496 1499 1501 1502 1503 1505 1507 1509 1510 1512 1513 1515 1517 1519 1521 1522 1524 1525 1526 1527 1528 1529 1530 1531 1532 1533 1534 1535 1536 1536 1537 1538 1539 1540 1540 1541 1542 1543 1544
1476 1482 1485 1485 1483 1490 1494 1496 1495 1493 1495 1498 1499 1500 1501 1502 1504 1505 1507 1508 1510 1512 1514 1515 1517 1519 1520 1522 1522 1523 1523 1524 1525 1526 1527 1528 1529 1530 1530 1530 1531 1532 1533 1533 1534 1536 1536 1537 1539
1473 1478 1481 1482 1485 1489 1493 1494 1491 1490 1492 1494 1496 1498 1499 1500 1501 1503 1505 1506 1507 1509 1510 1511 1512 1514 1515 1516 1517 1518 1518 1519 1519 1520 1520 1521 1522 1523 1524 1525 1525 1526 1527 1527 1528 1529 1529 1530 1532
1474 1475 1477 1483 1489 1491 1494 1495 1490 1487 1489 1491 1493 1495 1497 1498 1500 1502 1503 1504 1505 1505 1506 1507 1508 1509 1510 1511 1511 1512 1513 1513 1514 1514 1514 1515 1515 1516 1517 1518 1519 1520 1521 1521 1521 1522 1523 1523 1524
1476 1472 1473 1481 1494 1498 1497 1502 1484 1483 1487 1489 1492 1494 1496 1498 1499 1500 1502 1502 1503 1503 1503 1503 1504 1504 1505 1505 1506 1506 1506 1507 1508 1509 1509 1510 1510 1510 1510 1511 1512 1513 1514 1515 1515 1516 1516 1517 1516
1474 1473 1476 1483 1493 1493 1494 1499 1483 1480 1487 1489 1490 1493 1495 1497 1499 1500 1501 1501 1501 1501 1501 1501 1501 1501 1501 1501 1501 1501 1501 1501 1502 1503 1503 1504 1504 1504 1504 1504 1505 1505 1507 1508 1509 1509 1510 1509 1509
1475 1479 1484 1487 1493 1501 1491 1495 1485 1481 1480 1485 1488 1491 1494 1497 1498 1499 1500 1500 1500 1499 1499 1498 1498 1498 1497 1497 1497 1496 1496 1496 1496 1496 1496 1497 1498 1498 1498 1498 1498 1498 1499 1500 1501 1502 1502 1502 1502
1478 1488 1499 1503 1504 1499 1481 1485 1480 1470 1472 1479 1485 1490 1493 1496 1497 1498 1498 1498 1498 1497 1496 1496 1495 1494 1494 1493 1492 1492 1492 1491 1490 1490 1490 1491 1491 1492 1492 1492 1492 1491 1491 1492 1493 1494 1494 1495 1495
1479 1482 1491 1496 1497 1489 1483 1485 1477 1471 1473 1479 1484 1489 1492 1494 1495 1496 1496 1496 1495 1494 1493 1492 1491 1491 1490 1489 1488 1488 1487 1486 1486 1485 1485 1485 1485 1485 1485 1485 1485 1484 1484 1485 1485 1486 1486 1487 1487
1481 1483 1483 1487 1481 1484 1487 1478 1481 1475 1477 1480 1484 1488 1490 1492 1493 1494 1494 1493 1492 1491 1490 1489 1488 1487 1486 1485 1484 1483 1482 1481 1481 1480 1479 1479 1479 1478 1478 1478 1478 1478 1478 1478 1478 1478 1479 1480 1480
1482 1480 1486 1491 1488 1484 1476 1475 1478 1479 1479 1480 1483 1486 1488 1489 1491 1491 1491 1490 1489 1488 1487 1486 1485 1484 1482 1481 1480 1479 1478 1477 1476 1475 1474 1474 1473 1472 1472 1471 1471 1471 1471 1472 1472 1472 1473 1473 1474
1484 1485 1484 1484 1483 1487 1479 1477 1460 1468 1473 1478 1480 1483 1485 1487 1488 1489 1488 1488 1487 1485 1484 1483 1482 1481 1479 1478 1477 1476 1474 1473 1472 1471 1470 1469 1468 1467 1467 1466 1466 1466 1466 1466 1466 1466 1467 1467 1467
1479 1479 1482 1486 1485 1481 1486 1482 1462 1466 1471 1475 1479 1482 1484 1485 1486 1486 1486 1485 1484 1483 1482 1481 1479 1478 1477 1476 1474 1473 1472 1471 1469 1468 1467 1466 1464 1463 1463 1462 1462 1461 1461 1461 1461 1461 1461 1462 1462